sat.trackr.live / text

‹ back to catalog

ECHOSTAR 25

NORAD 68126 · 2026-045A

PAYLOAD ACTIVE UNKNOWN

§ Identity

Operator
Country
US
Launch date
2026-03-10
Launch site
AFETR
Launch vehicle
Mass (kg)
RCS (m²)

Purposes: comms

External: N2YO · Heavens-Above · Gunter

§ Orbital elements

Epoch: 2026-09-19T13:44:22.339392Z

Period
1,436.09 min
Inclination
0.0178°
Eccentricity
0.0001595
Mean motion
1.00272160 rev/d
Perigee alt
35,779.8 km
Apogee alt
35,793.2 km
Semi-major
42,164.6 km
B*
0.0000e+0
RAAN
171.3742°
Arg perigee
358.7317°
Mean anomaly
284.4796°
Rev number
193

§ Raw data

ECHOSTAR 251 68126U 26045A   26262.57248078 -.00000061  00000+0  00000+0 0  99952 68126   0.0178 171.3742 0001595 358.7317 284.4796  1.00272160  1932

JSON: /api/v1/satellites/68126 · /tle

For live sub-satellite position, see the globe view (requires WebGL).

§ Visibility from observer

Set your observer location to see the next 7 days of passes ≥ 10°. The values pass through the URL so the page stays shareable.

No JS? Fill the form by hand. The geolocation button needs JavaScript.